Regional Weather Roundup
Issued by NWS Sioux Falls, SD

Home | Current Version | Previous Version | Graphics & Text | Print | Product List | Glossary Off
Versions: 1 2 3 4 5 6 7 8 9 10 11 12 13 14 15 16 17 18 19 20 21 22 23 24 25 26 27 28 29 30 31 32 33 34 35 36 37 38 39 40 41 42 43 44 45 46 47 48 49 50

000
ASUS43 KFSD 211410
RWRFSD

WEATHER ROUNDUP FOR SE SOUTH DAKOTA/SW MINNESOTA/NW IOWA
NATIONAL WEATHER SERVICE SIOUX FALLS SD
800 AM CST SAT JAN 21 2017

NOTE: "FAIR" INDICATES FEW OR NO CLOUDS BELOW 12,000 FEET WITH NO
SIGNIFICANT WEATHER AND OR OBSTRUCTIONS TO VISIBILITY.


SDZ038>040-050-052>070-211500-
SOUTHEAST SOUTH DAKOTA

CITY           SKY/WX    TMP DP  RH WIND       PRES   REMARKS
BROOKINGS      FOG       34  34 100 S7        29.33S VSB 1/4 WCI  28
CHAMBERLAIN    CLOUDY    28  28 100 W6        29.36S WCI  22
HURON          CLOUDY    27  26  96 NW7       29.35F WCI  19
MADISON        CLOUDY    32  32 100 S6          N/A  WCI  26
MITCHELL       CLOUDY    29  26  89 W9        29.37S WCI  20
SIOUX FALLS    DRZL/FOG  36  36 100 SW5       29.35R VSB 1/4
WINNER         PTSUNNY   29  26  89 CALM      29.35S
YANKTON        CLOUDY    36  34  93 W7        29.36S
$$

MNZ071-072-080-081-089-090-097-098-211500-
SOUTHWEST MINNESOTA

CITY           SKY/WX    TMP DP  RH WIND       PRES   REMARKS
FAIRMONT       FOG       34  33  96 CALM      29.38S VSB 1/4
JACKSON        FOG       32  32 100 CALM      29.37S VSB<1/4
LUVERNE        FOG       34  32  93 CALM      29.36R VSB 1/4
MARSHALL       FOG       33  33 100 SE8       29.37S VSB 1   WCI  26
MONTEVIDEO     CLOUDY    34  34 100 SE12      29.39F FOG     WCI  25
PIPESTONE      FOG       36  36 100 SE6       29.34R VSB 1/4
REDWOOD FALLS  FOG       34  33  96 E7        29.38F VSB 1/2 WCI  28
TRACY          CLOUDY    34  34 100 SE5       29.36F FOG     WCI  30
WINDOM         FOG       34  34 100 CALM      29.37R VSB 1/4
WORTHINGTON    FOG       33  33 100 SE6       29.36  VSB 1/4 WCI  28
$$

IAZ001>003-012>014-020>022-031-032-NEZ013-014-SDZ071-211500-
NORTHWEST IOWA

CITY           SKY/WX    TMP DP  RH WIND       PRES   REMARKS
CHEROKEE       FOG       35  35 100 CALM      29.37S VSB<1/4
DENISON        FOG       37  37 100 SW3       29.36S VSB<1/4
ESTHERVILLE    FOG       32  32 100 CALM      29.36S VSB 1/4
LE MARS        FOG       36  36 100 SW5       29.38S VSB<1/4
ORANGE CITY    FOG       36  36 100 S3        29.36S VSB 1/4
SHELDON        FOG       34  34 100 SE3       29.35R VSB 1/4
SIOUX CITY     FOG       38  38 100 CALM      29.37F VSB 1/4
SPENCER        FOG       34  34 100 E3        29.37S VSB 1/4
STORM LAKE     FOG       36  36 100 SW5       29.36S VSB<1/4
$$

ABBREVIATIONS USED IN REMARKS
   TC - TEMPERATURE IN CELSIUS
  WCI - WIND CHILL INDEX
   HX - HEAT INDEX
  VSB - VISIBILITY




USA.gov is the U.S. government's official web portal to all federal, state and local government web resources and services.